JILIN-01 KUANFU 02B 5

导读

JILIN-01 KUANFU 02B 5(吉林一号宽幅02B 05星)是由中国研制发射的商业遥感卫星,于北京时间2024年9月20日成功升空入轨。作为吉林一号卫星星座的组成部分,该卫星将延续星座遥感服务能力,主要为国土资源勘查、矿产开发、智慧城市建设、农业监测等领域提供优质的商业遥感数据,助力各行业数字化发展,进一步完善我国商业遥感卫星服务网络布局。

Basic Information
目录编号:
61193
目录名称:
JILIN-01 KUANFU 02B 5
国际标识:
2024-169E
轨道中心:
EARTH
卫星名称:
JILIN-01 KUANFU 02B 5
卫星全名:
JILIN-01 KUANFU 02B 5
卫星状态:
在轨 (已飞行631 天)
发射日期:
2024-09-20 UTC
国别 :
中国 (CN)
星等 :
--
Orbit Information
数据来源 国际轨道数据 AOE轨道数据
星历时间 2026-06-13T03:36:35+0800
9小时前
查看轨道信息
2026-06-11T02:00:00+0800
2天前
查看轨道信息
半长轴 6917.778km 6917.799km
偏心率 0.0011906 0.0011847
轨道倾角 97.557° 97.557°
近地点辐角 308.436° 315.870°
升交点赤经 253.540° 251.505°
平近点角 51.580° 343.058°
近地点 531.404km 531.466km
远地点 547.878km 547.858km
周期 95.435分钟 95.436分钟
每日圈数 15.088736 15.088669
Detailed Information
使用方式:
暂无
2D Orbit Map
3D Orbit Map
Orbit Altitude Analysis Chart
Orbit Inclination Analysis Chart
Orbit Comprehensive Analysis Chart
View Comprehensive Chart